Location: Heidgraben
(53.7081°N, 9.6576°E)
Time: 20:11:42
(UTC+00:00)

Cosmos 1315 Rocket - Pass Details

Date: 05 July 2020
Orbit: 530 x 568 km, 81.2° (Epoch: 14 August)

Event Time Altitude Azimuth Distance (km) Brightness Sun altitude
Rises 20:44:09 0° 347° (NNW) 2,751 7.8 -6.0°
Reaches altitude 10° 20:46:21 10° 350° (N) 1,857 6.7 -6.2°
Maximum altitude 20:50:26 69° 75° (ENE) 609 3.0 -6.6°
Drops below altitude 10° 20:54:32 10° 159° (SSE) 1,860 4.9 -6.9°
Enters shadow 20:54:54 - 159° (SSE) 2,011 5.1 -6.9°
